64013000, 5301503, 2016-11-01 00:00:00, 17.51100, 109.70320,   0,  10,   8, 28.02, 1014.50, 15.00, 6,  11, 255, 0.000
64013000, 5301503, 2016-11-01 01:00:00, 17.49480, 109.68240,   0,  10,   4, 28.02, 1014.80, 15.00, 5,   1, 255, 0.000
64013000, 5301503, 2016-11-01 02:00:00, 17.47860, 109.66180,   0,  10,   6, 28.03, 1015.60, 15.00, 4,  20, 255, 0.000
64013000, 5301503, 2016-11-01 03:00:00, 17.46260, 109.64060,   0,  10,   5, 28.03, 1015.60, 15.00, 7,   9, 255, 0.000
64013000, 5301503, 2016-11-01 04:00:00, 17.44580, 109.61920,   0,  10,   8, 28.03, 1015.20, 15.00, 4,  11, 255, 0.000
64013000, 5301503, 2016-11-01 05:00:00, 17.42860, 109.59900,   0,  11,   4, 28.04, 1014.40, 15.00, 7,  16, 255, 0.000
64013000, 5301503, 2016-11-01 06:00:00, 17.41140, 109.57840,   0,  11,   4, 28.04, 1013.90, 15.00, 4,  11, 255, 0.000
64013000, 5301503, 2016-11-01 07:00:00, 17.39320, 109.55720,   0,  11,   7, 28.04, 1013.40, 15.00, 4,  11, 255, 0.000
64013000, 5301503, 2016-11-01 08:00:00, 17.37600, 109.53640,   0,  11,   3, 28.04, 1012.90, 15.00, 4,  20, 255, 0.000
64013000, 5301503, 2016-11-01 09:00:00, 17.35960, 109.51540,   0,  11,   3, 28.02, 1013.00, 15.00, 6,  11, 255, 0.000
64013000, 5301503, 2016-11-01 10:00:00, 17.34360, 109.49220,   0,  11,  11, 28.01, 1014.00, 15.00, 5,  12, 255, 0.000
64013000, 5301503, 2016-11-01 11:00:00, 17.32980, 109.47000,   0,  10,   5, 28.01, 1014.30, 15.00, 4,  10, 255, 0.000
64013000, 5301503, 2016-11-01 12:00:00, 17.31680, 109.44600,   0,  12,   4, 27.99, 1014.70, 15.00, 5,   9, 255, 0.000
64013000, 5301503, 2016-11-01 13:00:00, 17.30480, 109.42140,   0,  11,   4, 27.98, 1015.60, 15.00, 5,  20, 255, 0.000
64013000, 5301503, 2016-11-01 14:00:00, 17.29360, 109.39580,   0,  11,   7, 27.97, 1015.90, 15.00, 6,  13, 255, 0.000
64013000, 5301503, 2016-11-01 15:00:00, 17.28320, 109.37040,   0,  11,   5, 27.97, 1015.60, 15.00, 5,   1, 255, 0.000
64013000, 5301503, 2016-11-01 16:00:00, 17.27260, 109.34600,   0,  10,   7, 27.96, 1015.30, 15.00, 6,  13, 255, 0.000
64013000, 5301503, 2016-11-01 17:00:00, 17.26200, 109.32280,   0,  11,  10, 27.95, 1015.10, 15.00, 5,  11, 255, 0.000
64013000, 5301503, 2016-11-01 18:00:00, 17.25140, 109.30220,   0,  11,   6, 27.94, 1014.50, 15.00, 5,  21, 255, 0.000
64013000, 5301503, 2016-11-01 19:00:00, 17.23940, 109.28320,   0,  11,   2, 27.94, 1014.40, 15.00, 5,  13, 255, 0.000
64013000, 5301503, 2016-11-01 20:00:00, 17.22500, 109.26600,   0,  11,   5, 27.93, 1014.00, 15.00, 5,   8, 255, 0.000
64013000, 5301503, 2016-11-01 21:00:00, 17.20840, 109.25280,   0,  11,   2, 27.92, 1014.20, 15.00, 4,   8, 255, 0.000
64013000, 5301503, 2016-11-01 22:00:00, 17.19040, 109.24200,   0,  11,   2, 27.91, 1014.50, 15.00, 6,  10, 255, 0.000
64013000, 5301503, 2016-11-01 23:00:00, 17.17020, 109.23160,   0,  10,   8, 27.91, 1015.30, 15.00, 5,   8, 255, 0.000
64013000, 5301503, 2016-11-02 00:00:00, 17.14820, 109.22220,   0,  11,   7, 27.90, 1015.80, 15.00, 5,  13, 255, 0.000
64013000, 5301503, 2016-11-02 01:00:00, 17.12620, 109.21340,   0,  11,   4, 27.90, 1016.60, 15.00, 6,  22, 255, 0.000
64013000, 5301503, 2016-11-02 02:00:00, 17.10200, 109.20440,   0,  10,   7, 27.90, 1016.90, 15.00, 4,   8, 255, 0.000
64013000, 5301503, 2016-11-02 03:00:00, 17.07720, 109.19460,   0,  11,   2, 27.91, 1016.70, 15.00, 5,   4, 255, 0.000
64013000, 5301503, 2016-11-02 04:00:00, 17.07720, 109.19460,  63,   9,  12, 27.92, 1016.00, 15.00, 4,  10, 255, 0.000
64013000, 5301503, 2016-11-02 05:00:00, 17.02520, 109.17460,   0,  11,   7, 27.92, 1015.10, 15.00, 5,  15, 255, 0.000
64013000, 5301503, 2016-11-02 06:00:00, 16.99820, 109.16520,   0,  11,   4, 27.93, 1014.60, 15.00, 6,   8, 255, 0.000
64013000, 5301503, 2016-11-02 07:00:00, 16.97000, 109.15520,   0,  10,   7, 27.93, 1013.80, 15.00, 4,  12, 255, 0.000
64013000, 5301503, 2016-11-02 08:00:00, 16.94180, 109.14580,   0,  11,   5, 27.92, 1013.30, 15.00, 4,  11, 255, 0.000
64013000, 5301503, 2016-11-02 09:00:00, 16.91200, 109.13660,   0,  11,  10, 27.92, 1013.40, 15.00, 4,   8, 255, 0.000
64013000, 5301503, 2016-11-02 10:00:00, 16.88460, 109.12740,   0,  10,   4, 27.90, 1013.90, 15.00, 5,  12, 255, 0.000
64013000, 5301503, 2016-11-02 11:00:00, 16.85600, 109.11640,   0,  11,   5, 27.90, 1014.40, 15.00, 5,   8, 255, 0.000
64013000, 5301503, 2016-11-02 12:00:00, 16.82820, 109.10220,   0,  12,   5, 27.90, 1015.20, 15.00, 5,  10, 255, 0.000
64013000, 5301503, 2016-11-02 13:00:00, 16.80220, 109.08560,   0,  11,   4, 27.90, 1016.00, 15.00, 4,  12, 255, 0.000
64013000, 5301503, 2016-11-02 14:00:00, 16.77720, 109.06700,   0,  10,   5, 27.89, 1016.30, 15.00, 4,   7, 255, 0.000
64013000, 5301503, 2016-11-02 15:00:00, 16.75340, 109.04620,   0,  11,   4, 27.88, 1016.10, 15.00, 5,   4, 255, 0.000
64013000, 5301503, 2016-11-02 16:00:00, 16.73140, 109.02380,   0,  10,  10, 27.87, 1016.20, 15.00, 6,   9, 255, 0.000
64013000, 5301503, 2016-11-02 17:00:00, 16.71140, 109.00120,   0,  12,   5, 27.86, 1015.90, 15.00, 5,  12, 255, 0.000
64013000, 5301503, 2016-11-02 18:00:00, 16.69360, 108.97960,   0,  11,   4, 27.84, 1015.40, 15.00, 4,  11, 255, 0.000
64013000, 5301503, 2016-11-02 19:00:00, 16.67700, 108.96200,   0,  11,   4, 27.82, 1014.80, 15.00, 4,  10, 255, 0.000
64013000, 5301503, 2016-11-02 20:00:00, 16.66060, 108.94900,   0,  10,   4, 27.82, 1015.10, 15.00, 6,  14, 255, 0.000
64013000, 5301503, 2016-11-02 21:00:00, 16.66060, 108.94900,  62,  11,  12, 27.79, 1014.90, 15.00, 8,  19, 255, 0.000
64013000, 5301503, 2016-11-02 22:00:00, 16.62340, 108.93480,   0,  11,   4, 27.79, 1015.10, 15.00, 4,   8, 255, 0.000
64013000, 5301503, 2016-11-02 23:00:00, 16.60180, 108.93300,   0,  10,   7, 27.77, 1015.60, 15.00, 6,   7, 255, 0.000
64013000, 5301503, 2016-11-03 00:00:00, 16.57840, 108.93420,   0,   9,   7, 27.77, 1015.80, 15.00, 4,  12, 255, 0.000
64013000, 5301503, 2016-11-03 01:00:00, 16.55380, 108.93740,   0,  10,   2, 27.76, 1016.40, 15.00, 4,  12, 255, 0.000
64013000, 5301503, 2016-11-03 02:00:00, 16.52760, 108.94200,   0,  10,   5, 27.76, 1017.30, 15.00, 5,  14, 255, 0.000
64013000, 5301503, 2016-11-03 03:00:00, 16.50000, 108.94700,   0,  10,   5, 27.76, 1017.30, 15.00, 5,   8, 255, 0.000
64013000, 5301503, 2016-11-03 04:00:00, 16.47080, 108.95320,   0,  10,   7, 27.77, 1016.70, 15.00, 5,  10, 255, 0.000
64013000, 5301503, 2016-11-03 05:00:00, 16.44040, 108.95980,   0,  11,   7, 27.77, 1015.60, 15.00, 6,  10, 255, 0.000
64013000, 5301503, 2016-11-03 06:00:00, 16.40880, 108.96780,   0,  11,   5, 27.78, 1014.60, 15.00, 6,  17, 255, 0.000
64013000, 5301503, 2016-11-03 07:00:00, 16.37640, 108.97720,   0,  11,   3, 27.77, 1013.70, 15.00, 5,  11, 255, 0.000
64013000, 5301503, 2016-11-03 08:00:00, 16.34040, 108.98780,   0,  11,   5, 27.76, 1013.30, 15.00, 4,  11, 255, 0.000
64013000, 5301503, 2016-11-03 09:00:00, 16.30360, 108.99720,   0,  11,   6, 27.75, 1013.30, 15.00, 4,  13, 255, 0.000
64013000, 5301503, 2016-11-03 10:00:00, 16.26780, 109.00660,   0,  11,   2, 27.74, 1013.40, 15.00, 8,   9, 255, 0.000
64013000, 5301503, 2016-11-03 11:00:00, 16.23080, 109.01520,   0,  10,   5, 27.73, 1013.70, 15.00, 9,  21, 255, 0.000
64013000, 5301503, 2016-11-03 12:00:00, 16.19460, 109.02220,   0,  12,   4, 27.73, 1014.20, 15.00, 4,  11, 255, 0.000
64013000, 5301503, 2016-11-03 13:00:00, 16.15860, 109.02700,   0,  11,   6, 27.72, 1015.00, 15.00, 4,  14, 255, 0.000
64013000, 5301503, 2016-11-03 14:00:00, 16.12440, 109.03080,   0,  11,   4, 27.71, 1015.10, 15.00, 4,  16, 255, 0.000
64013000, 5301503, 2016-11-03 15:00:00, 16.09080, 109.03280,   0,  11,   3, 27.71, 1014.90, 15.00, 4,   8, 255, 0.000
64013000, 5301503, 2016-11-03 16:00:00, 16.05880, 109.03340,   0,  10,   4, 27.70, 1014.40, 15.00, 5,  21, 255, 0.000
64013000, 5301503, 2016-11-03 17:00:00, 16.02820, 109.03320,   0,  11,   7, 27.69, 1013.90, 15.00, 5,   9, 255, 0.000
64013000, 5301503, 2016-11-03 18:00:00, 16.00040, 109.03340,   0,  11,   4, 27.69, 1013.50, 15.00, 5,  11, 255, 0.000
64013000, 5301503, 2016-11-03 19:00:00, 15.97180, 109.03340,   0,  11,   7, 27.67, 1012.90, 15.00, 4,  19, 255, 0.000
64013000, 5301503, 2016-11-03 20:00:00, 15.94640, 109.03500,   0,  11,   1, 27.68, 1012.30, 15.00, 5,  16, 255, 0.000
64013000, 5301503, 2016-11-03 21:00:00, 15.92060, 109.03780,   0,  11,   2, 27.67, 1012.20, 15.00, 5,  14, 255, 0.000
64013000, 5301503, 2016-11-03 22:00:00, 15.89620, 109.04240,   0,  10,   5, 27.66, 1012.60, 15.00, 4,   9, 255, 0.000
64013000, 5301503, 2016-11-03 23:00:00, 15.87260, 109.04860,   0,  10,   4, 27.66, 1013.00, 15.00, 5,   9, 255, 0.000
64013000, 5301503, 2016-11-04 00:00:00, 15.84800, 109.05600,   0,  11,   4, 27.66, 1013.40, 15.00, 4,  11, 255, 0.000
64013000, 5301503, 2016-11-04 01:00:00, 15.82320, 109.06460,   0,  10,   5, 27.66, 1014.10, 15.00, 4,  28, 255, 0.000
64013000, 5301503, 2016-11-04 02:00:00, 15.79940, 109.07420,   0,  11,   4, 27.67, 1014.80, 15.00, 4,   8, 255, 0.000
64013000, 5301503, 2016-11-04 03:00:00, 15.77520, 109.08440,   0,  11,   4, 27.68, 1014.70, 15.00, 5,  24, 255, 0.000
64013000, 5301503, 2016-11-04 04:00:00, 15.75120, 109.09540,   0,  10,   1, 27.68, 1013.90, 15.00, 7,   4, 255, 0.000
64013000, 5301503, 2016-11-04 05:00:00, 15.72580, 109.10780,   0,  11,   5, 27.69, 1013.10, 15.00, 4,  10, 255, 0.000
64013000, 5301503, 2016-11-04 06:00:00, 15.70020, 109.12100,   0,  11,   4, 27.70, 1011.90, 15.00, 4,  10, 255, 0.000
64013000, 5301503, 2016-11-04 07:00:00, 15.67340, 109.13480,   0,  11,   1, 27.70, 1010.80, 15.00, 5,  11, 255, 0.000
64015370, 5301502, 2016-11-01 00:00:00, 18.04640, 114.49040, 120,  10,  12, 28.05, 1013.50, 15.00, 9,  12, 255, 0.000
64015370, 5301502, 2016-11-01 01:00:00, 18.04640, 114.49040, 180,  10,  12, 28.06, 1013.90, 15.00, 8,  18, 255, 0.000
64015370, 5301502, 2016-11-01 02:00:00, 18.06220, 114.45060,   0,  10,   9, 28.06, 1014.20, 15.00, 16,  11, 255, 0.000
64015370, 5301502, 2016-11-01 03:00:00, 18.06740, 114.44300,   0,  10,  10, 28.07, 1013.90, 15.00, 5,  15, 255, 0.000
64015370, 5301502, 2016-11-01 04:00:00, 18.07340, 114.43640,   0,  11,   9, 28.06, 1013.30, 15.00, 8,   9, 255, 0.000
64015370, 5301502, 2016-11-01 05:00:00, 18.07960, 114.42960,   0,  11,   7, 28.07, 1012.70, 15.00, 7,  18, 255, 0.000
64015370, 5301502, 2016-11-01 06:00:00, 18.07960, 114.42960,  61,  11,  12, 28.07, 1012.10, 15.00, 8,   8, 255, 0.000
64015370, 5301502, 2016-11-01 07:00:00, 18.07960, 114.42960, 121,  11,  12, 28.06, 1012.00, 15.00, 7,  12, 255, 0.000
64015370, 5301502, 2016-11-01 08:00:00, 18.09480, 114.41420,   0,  10,   7, 28.05, 1011.80, 15.00, 6,   9, 255, 0.000
64015370, 5301502, 2016-11-01 09:00:00, 18.09760, 114.40960,   0,  11,   8, 28.03, 1012.30, 15.00, 8,  22, 255, 0.000
64015370, 5301502, 2016-11-01 10:00:00, 18.09760, 114.40960,  60,   7,  12, 28.02, 1012.70, 15.00, 7,   9, 255, 0.000
64015370, 5301502, 2016-11-01 11:00:00, 18.10280, 114.39760,   0,  11,   7, 28.00, 1013.30, 15.00, 9,   9, 255, 0.000
64015370, 5301502, 2016-11-01 12:00:00, 18.10380, 114.39020,   0,  12,   9, 27.98, 1014.30, 15.00, 7,  10, 255, 0.000
64015370, 5301502, 2016-11-01 13:00:00, 18.10460, 114.38260,   0,  11,   7, 27.97, 1014.80, 15.00, 9,  10, 255, 0.000
64015370, 5301502, 2016-11-01 14:00:00, 18.10560, 114.37540,   0,  11,   7, 27.95, 1014.80, 15.00, 7,   9, 255, 0.000
64015370, 5301502, 2016-11-01 15:00:00, 18.10760, 114.36960,   0,  11,  10, 27.95, 1014.90, 15.00, 8,   1, 255, 0.000
64015370, 5301502, 2016-11-01 16:00:00, 18.10760, 114.36960,  60,   9,  12, 27.92, 1014.80, 15.00, 12,  10, 255, 0.000
64015370, 5301502, 2016-11-01 17:00:00, 18.10980, 114.35660,   0,  12,   9, 27.93, 1014.20, 15.00, 13,  13, 255, 0.000
64015370, 5301502, 2016-11-01 18:00:00, 18.11140, 114.34980,   0,  11,   7, 27.91, 1013.70, 15.00, 6,  10, 255, 0.000
64015370, 5301502, 2016-11-01 19:00:00, 18.11140, 114.34980,  61,  11,  12, 27.90, 1013.20, 15.00, 8,  16, 255, 0.000
64015370, 5301502, 2016-11-01 20:00:00, 18.11140, 114.34980, 121,   9,  12, 27.88, 1012.70, 15.00, 7,  18, 255, 0.000
64015370, 5301502, 2016-11-01 21:00:00, 18.11140, 114.34980, 181,  10,  12, 27.83, 1012.60, 15.00, 9,  22, 255, 0.000
64015370, 5301502, 2016-11-01 22:00:00, 18.11640, 114.32180,   0,  11,   7, 27.81, 1013.30, 15.00, 10,  11, 255, 0.000
64015370, 5301502, 2016-11-01 23:00:00, 18.11640, 114.32180,  61,  11,  12, 27.83, 1014.10, 15.00, 12,  11, 255, 0.000
64015370, 5301502, 2016-11-02 00:00:00, 18.11640, 114.32180, 121,  11,  12, 27.83, 1014.40, 15.00, 8,  10, 255, 0.000
64015370, 5301502, 2016-11-02 01:00:00, 18.12040, 114.29880,   0,  10,   9, 27.81, 1015.10, 15.00, 15,   9, 255, 0.000
64015370, 5301502, 2016-11-02 02:00:00, 18.11980, 114.28720,   0,   9,  10, 27.82, 1015.50, 15.00, 10,   7, 255, 0.000
64015370, 5301502, 2016-11-02 03:00:00, 18.11860, 114.26980,   0,  11,  10, 27.82, 1015.30, 15.00, 8,  13, 255, 0.000
64015370, 5301502, 2016-11-02 04:00:00, 18.11840, 114.25140,   0,  11,   8, 27.81, 1014.60, 15.00, 11,   2, 255, 0.000
64015370, 5301502, 2016-11-02 05:00:00, 18.11840, 114.25140,  60,   8,  12, 27.82, 1014.10, 15.00, 10,  11, 255, 0.000
64015370, 5301502, 2016-11-02 06:00:00, 18.12520, 114.21760,   0,  11,  10, 27.80, 1013.40, 15.00, 8,   8, 255, 0.000
64015370, 5301502, 2016-11-02 07:00:00, 18.13260, 114.20340,   0,  11,  10, 27.79, 1012.80, 15.00, 8,  21, 255, 0.000
64015370, 5301502, 2016-11-02 08:00:00, 18.14160, 114.19060,   0,  11,   8, 27.77, 1012.60, 15.00, 10,  10, 255, 0.000
64015370, 5301502, 2016-11-02 09:00:00, 18.15220, 114.18020,   0,  10,   7, 27.77, 1012.80, 15.00, 8,   3, 255, 0.000
64015370, 5301502, 2016-11-02 10:00:00, 18.15220, 114.18020,  61,  11,  12, 27.76, 1013.50, 15.00, 9,  58, 255, 0.000
64015370, 5301502, 2016-11-02 11:00:00, 18.17240, 114.16840,   0,  11,   6, 27.75, 1013.60, 15.00, 9,  11, 255, 0.000
64015370, 5301502, 2016-11-02 12:00:00, 18.17240, 114.16840,  61,  12,  12, 27.74, 1014.60, 15.00, 11,  11, 255, 0.000
64015370, 5301502, 2016-11-02 13:00:00, 18.18760, 114.16100,   0,  11,   8, 27.74, 1014.80, 15.00, 8,  17, 255, 0.000
64015370, 5301502, 2016-11-02 14:00:00, 18.19160, 114.15620,   0,  11,   8, 27.74, 1014.90, 15.00, 8,  17, 255, 0.000
64015370, 5301502, 2016-11-02 15:00:00, 18.19160, 114.15620,  61,  10,  12, 27.71, 1014.90, 15.00, 8,   1, 255, 0.000
64015370, 5301502, 2016-11-02 16:00:00, 18.19840, 114.14280,   0,  11,   8, 27.73, 1014.40, 15.00, 10,  11, 255, 0.000
64015370, 5301502, 2016-11-02 17:00:00, 18.19840, 114.14280,  61,  10,  12, 27.71, 1014.00, 15.00, 7,  12, 255, 0.000
64015370, 5301502, 2016-11-02 18:00:00, 18.20700, 114.12760,   0,  11,   7, 27.71, 1013.70, 15.00, 8,   3, 255, 0.000
64015370, 5301502, 2016-11-02 19:00:00, 18.21180, 114.12320,   0,  11,   6, 27.71, 1013.30, 15.00, 6,   7, 255, 0.000
64015370, 5301502, 2016-11-02 20:00:00, 18.21720, 114.11920,   0,  10,   5, 27.68, 1013.30, 15.00, 18,  13, 255, 0.000
64015370, 5301502, 2016-11-02 21:00:00, 18.22220, 114.11460,   0,  10,  10, 27.68, 1013.50, 15.00, 8,  12, 255, 0.000
64015370, 5301502, 2016-11-02 22:00:00, 18.22580, 114.11060,   0,  11,   8, 27.66, 1014.00, 15.00, 8,  11, 255, 0.000
64015370, 5301502, 2016-11-02 23:00:00, 18.22580, 114.11060,  61,  11,  12, 27.68, 1014.40, 15.00, 9,  18, 255, 0.000
64015370, 5301502, 2016-11-03 00:00:00, 18.22780, 114.10140,   0,  10,   8, 27.68, 1015.10, 15.00, 8,   8, 255, 0.000
64015370, 5301502, 2016-11-03 01:00:00, 18.22780, 114.10140,  61,  10,  12, 27.67, 1015.90, 15.00, 11,   9, 255, 0.000
64015370, 5301502, 2016-11-03 02:00:00, 18.22680, 114.09020,   0,  10,   4, 27.69, 1016.40, 15.00, 10,  11, 255, 0.000
64015370, 5301502, 2016-11-03 03:00:00, 18.22580, 114.08380,   0,  10,   5, 27.68, 1015.90, 15.00, 10,  12, 255, 0.000
64015370, 5301502, 2016-11-03 04:00:00, 18.22580, 114.07680,   0,  10,  11, 27.69, 1015.00, 15.00, 9,   8, 255, 0.000
64015370, 5301502, 2016-11-03 05:00:00, 18.22620, 114.06920,   0,  11,   7, 27.69, 1014.10, 15.00, 11,  20, 255, 0.000
64015370, 5301502, 2016-11-03 06:00:00, 18.22620, 114.06040,   0,  11,   9, 27.67, 1013.30, 15.00, 10,  16, 255, 0.000
64015370, 5301502, 2016-11-03 07:00:00, 18.22500, 114.04880,   0,   6,   8, 27.67, 1012.60, 15.00, 8,  13, 255, 0.000
64015370, 5301502, 2016-11-03 08:00:00, 18.22500, 114.03980,   0,  10,   7, 27.66, 1012.30, 15.00, 11,  12, 255, 0.000
64015370, 5301502, 2016-11-03 09:00:00, 18.22500, 114.03980,  61,  11,  12, 27.65, 1012.30, 15.00, 6,  11, 255, 0.000
64015370, 5301502, 2016-11-03 10:00:00, 18.22940, 114.02520,   0,  11,  11, 27.63, 1012.80, 15.00, 8,  10, 255, 0.000
64015370, 5301502, 2016-11-03 11:00:00, 18.22940, 114.02520,  60,  10,  12, 27.66, 1013.00, 15.00, 9,  19, 255, 0.000
64015370, 5301502, 2016-11-03 12:00:00, 18.23340, 114.00800,   0,  12,   8, 27.63, 1013.40, 15.00, 10,   9, 255, 0.000
64015370, 5301502, 2016-11-03 13:00:00, 18.23340, 114.00800,  61,  11,  12, 27.64, 1013.80, 15.00, 10,  21, 255, 0.000
64015370, 5301502, 2016-11-03 14:00:00, 18.24080, 113.99360,   0,  10,   4, 27.64, 1014.00, 15.00, 8,   7, 255, 0.000
64015370, 5301502, 2016-11-03 15:00:00, 18.24520, 113.98440,   0,  11,   9, 27.60, 1013.90, 15.00, 7,  11, 255, 0.000
64015370, 5301502, 2016-11-03 16:00:00, 18.24960, 113.97820,   0,  10,   6, 27.58, 1013.60, 15.00, 11,  13, 255, 0.000
64015370, 5301502, 2016-11-03 17:00:00, 18.25340, 113.97240,   0,  12,   8, 27.61, 1013.10, 15.00, 8,  13, 255, 0.000
64015370, 5301502, 2016-11-03 18:00:00, 18.25780, 113.96640,   0,  12,   7, 27.59, 1012.70, 15.00, 7,   9, 255, 0.000
64015370, 5301502, 2016-11-03 19:00:00, 18.26300, 113.96100,   0,  11,   9, 27.59, 1012.10, 15.00, 7,  14, 255, 0.000
64015370, 5301502, 2016-11-03 20:00:00, 18.26880, 113.95680,   0,  11,   9, 27.57, 1011.80, 15.00, 10,   8, 255, 0.000
64015370, 5301502, 2016-11-03 21:00:00, 18.27400, 113.95640,   0,  11,  10, 27.59, 1012.00, 15.00, 7,  12, 255, 0.000
64015370, 5301502, 2016-11-03 22:00:00, 18.27920, 113.95700,   0,  11,   8, 27.58, 1012.30, 15.00, 8,  10, 255, 0.000
64015370, 5301502, 2016-11-03 23:00:00, 18.28280, 113.95460,   0,  10,  11, 27.56, 1012.70, 15.00, 8,  13, 255, 0.000
64015370, 5301502, 2016-11-04 00:00:00, 18.28780, 113.95400,   0,  10,   9, 27.58, 1013.10, 15.00, 10,  11, 255, 0.000
64015370, 5301502, 2016-11-04 01:00:00, 18.29260, 113.95400,   0,  10,   9, 27.57, 1013.50, 15.00, 6,  20, 255, 0.000
64015370, 5301502, 2016-11-04 02:00:00, 18.29520, 113.95260,   0,  10,   8, 27.59, 1013.70, 15.00, 9,  14, 255, 0.000
64015370, 5301502, 2016-11-04 03:00:00, 18.29700, 113.95020,   0,  10,   7, 27.60, 1013.10, 15.00, 11,  11, 255, 0.000
64015370, 5301502, 2016-11-04 04:00:00, 18.29920, 113.94820,   0,  10,   8, 27.62, 1012.60, 15.00, 20,  17, 255, 0.000
64015370, 5301502, 2016-11-04 05:00:00, 18.30140, 113.94640,   0,  11,  10, 27.62, 1011.80, 15.00, 10,  10, 255, 0.000
64015370, 5301502, 2016-11-04 06:00:00, 18.30140, 113.94640,  60,  10,  12, 27.62, 1010.80, 15.00, 6,  11, 255, 0.000
64015370, 5301502, 2016-11-04 07:00:00, 18.30220, 113.94560,   0,  11,  10, 27.62, 1010.20, 15.00, 9,  12, 255, 0.000
